カタログに戻る

STARLINK-36119

運用中通信VLEO
NORAD 67619·PAYLOAD·🇺🇸 United States

打ち上げ Jan 30, 2026 から Cape Canaveral Space Force Station

Loading…

次のパス (今後24時間)

TLE

最新Source: CelesTrak SupGP

元期: Sep 15, 2026, 03:49 UTC

1 67619C 26020C   26258.15951389  .00070825  00000+0  25650-2 0  2582
2 67619  42.9998 149.9838 0001439 269.9811 248.0381 15.27546705    16

AllMySatでSTARLINK-36119をリアルタイム追跡

Download on the App Store